Time,TemperatureF,DewpointF,PressureIn,WindDirection,WindDirectionDegrees,WindSpeedMPH,WindSpeedGustMPH,Humidity,HourlyPrecipIn,Conditions,Clouds,dailyrainin,SolarRadiationWatts/m^2,SoftwareType,DateUTC
2013-08-14 00:03:00,71.0,69.0,30.01,West,278,2.0,7.0,95,0.00,,,0.04,0.000000,,2013-08-14 04:03:00,
2013-08-14 00:10:00,72.0,70.0,30.00,North,355,1.0,5.0,95,0.00,,,0.04,0.000000,,2013-08-14 04:10:00,
2013-08-14 00:42:00,72.0,70.0,30.00,North,355,1.0,5.0,95,0.00,,,0.04,0.000000,,2013-08-14 04:42:00,
2013-08-14 00:52:00,72.0,70.0,30.00,North,355,1.0,5.0,95,0.00,,,0.04,0.000000,,2013-08-14 04:52:00,
2013-08-14 01:02:00,72.0,70.0,30.00,North,355,1.0,5.0,95,0.00,,,0.04,0.000000,,2013-08-14 05:02:00,
2013-08-14 01:10:00,72.0,71.0,29.99,North,1,1.0,7.0,97,0.00,,,0.04,0.000000,,2013-08-14 05:10:00,
2013-08-14 01:42:00,72.0,71.0,29.99,North,1,1.0,7.0,97,0.00,,,0.04,0.000000,,2013-08-14 05:42:00,
2013-08-14 01:52:00,72.0,71.0,29.99,North,1,1.0,7.0,97,0.00,,,0.04,0.000000,,2013-08-14 05:52:00,
2013-08-14 02:01:00,72.0,71.0,29.99,North,1,1.0,7.0,97,0.00,,,0.04,0.000000,,2013-08-14 06:01:00,
2013-08-14 02:10:00,70.0,69.0,30.00,NW,319,2.0,7.0,98,0.00,,,0.04,0.000000,,2013-08-14 06:10:00,
2013-08-14 02:42:00,70.0,69.0,30.00,NW,319,2.0,7.0,98,0.00,,,0.04,0.000000,,2013-08-14 06:42:00,
2013-08-14 02:52:00,70.0,69.0,30.00,NW,319,2.0,7.0,98,0.00,,,0.04,0.000000,,2013-08-14 06:52:00,
2013-08-14 03:01:00,70.0,69.0,30.00,NW,319,2.0,7.0,98,0.00,,,0.04,0.000000,,2013-08-14 07:01:00,
2013-08-14 03:10:00,71.0,71.0,30.00,NW,326,3.0,7.0,99,0.00,,,0.04,0.000000,,2013-08-14 07:10:00,
2013-08-14 03:42:00,71.0,71.0,30.00,NW,326,3.0,7.0,99,0.00,,,0.04,0.000000,,2013-08-14 07:42:00,
2013-08-14 03:52:00,71.0,71.0,30.00,NW,326,3.0,7.0,99,0.00,,,0.04,0.000000,,2013-08-14 07:52:00,
2013-08-14 04:01:00,71.0,71.0,30.00,NW,326,3.0,7.0,99,0.00,,,0.04,0.000000,,2013-08-14 08:01:00,
2013-08-14 04:10:00,71.0,71.0,30.00,NNW,343,3.0,11.0,99,0.00,,,0.04,0.000000,,2013-08-14 08:10:00,
2013-08-14 04:42:00,71.0,71.0,30.00,NNW,343,3.0,11.0,99,0.00,,,0.04,0.000000,,2013-08-14 08:42:00,
2013-08-14 04:52:00,71.0,71.0,30.00,NNW,343,3.0,11.0,99,0.00,,,0.04,0.000000,,2013-08-14 08:52:00,
2013-08-14 05:02:00,71.0,71.0,30.00,NNW,343,3.0,11.0,99,0.00,,,0.04,0.000000,,2013-08-14 09:02:00,
2013-08-14 05:10:00,69.0,68.0,30.00,North,350,2.0,8.0,96,0.00,,,0.04,0.000000,,2013-08-14 09:10:00,
2013-08-14 05:43:00,69.0,68.0,30.00,North,350,2.0,8.0,96,0.00,,,0.04,0.000000,,2013-08-14 09:43:00,
2013-08-14 05:53:00,69.0,68.0,30.00,North,350,2.0,8.0,96,0.00,,,0.04,0.000000,,2013-08-14 09:53:00,
2013-08-14 06:03:00,69.0,68.0,30.00,North,350,2.0,8.0,96,0.00,,,0.04,0.000000,,2013-08-14 10:03:00,
2013-08-14 06:10:00,67.0,66.0,30.02,NNE,29,4.0,9.0,98,0.00,,,0.04,0.000000,,2013-08-14 10:10:00,
2013-08-14 06:43:00,67.0,66.0,30.02,NNE,29,4.0,9.0,98,0.00,,,0.04,0.000000,,2013-08-14 10:43:00,
2013-08-14 06:53:00,67.0,66.0,30.02,NNE,29,4.0,9.0,98,0.00,,,0.04,0.000000,,2013-08-14 10:53:00,
2013-08-14 07:02:00,67.0,66.0,30.02,NNE,29,4.0,9.0,98,0.00,,,0.04,0.000000,,2013-08-14 11:02:00,
2013-08-14 07:10:00,69.0,69.0,30.06,NNE,28,2.0,9.0,99,0.00,,,0.04,1.000000,,2013-08-14 11:10:00,
2013-08-14 07:42:00,69.0,69.0,30.06,NNE,28,2.0,9.0,99,0.00,,,0.04,1.000000,,2013-08-14 11:42:00,
2013-08-14 07:52:00,69.0,69.0,30.06,NNE,28,2.0,9.0,99,0.00,,,0.04,1.000000,,2013-08-14 11:52:00,
2013-08-14 08:01:00,69.0,69.0,30.06,NNE,28,2.0,9.0,99,0.00,,,0.04,1.000000,,2013-08-14 12:01:00,
2013-08-14 08:10:00,71.0,66.0,30.07,NNE,24,4.0,12.0,84,0.00,,,0.04,65.000000,,2013-08-14 12:10:00,
2013-08-14 08:42:00,71.0,66.0,30.07,NNE,24,4.0,12.0,84,0.00,,,0.04,65.000000,,2013-08-14 12:42:00,
2013-08-14 08:52:00,71.0,66.0,30.07,NNE,24,4.0,12.0,84,0.00,,,0.04,65.000000,,2013-08-14 12:52:00,
2013-08-14 09:02:00,71.0,66.0,30.07,NNE,24,4.0,12.0,84,0.00,,,0.04,65.000000,,2013-08-14 13:02:00,
2013-08-14 09:10:00,75.0,66.0,30.09,West,269,2.0,8.0,73,0.00,,,0.04,152.000000,,2013-08-14 13:10:00,
2013-08-14 09:42:00,75.0,66.0,30.09,West,269,2.0,8.0,73,0.00,,,0.04,152.000000,,2013-08-14 13:42:00,
2013-08-14 09:52:00,75.0,66.0,30.09,West,269,2.0,8.0,73,0.00,,,0.04,152.000000,,2013-08-14 13:52:00,
2013-08-14 10:02:00,75.0,66.0,30.09,West,269,2.0,8.0,73,0.00,,,0.04,152.000000,,2013-08-14 14:02:00,
2013-08-14 10:10:00,75.0,64.0,30.10,NE,37,5.0,19.0,69,0.00,,,0.04,253.000000,,2013-08-14 14:10:00,
2013-08-14 10:42:00,75.0,64.0,30.10,NE,37,5.0,19.0,69,0.00,,,0.04,253.000000,,2013-08-14 14:42:00,
2013-08-14 10:52:00,75.0,64.0,30.10,NE,37,5.0,19.0,69,0.00,,,0.04,253.000000,,2013-08-14 14:52:00,
2013-08-14 11:02:00,75.0,64.0,30.10,NE,37,5.0,19.0,69,0.00,,,0.04,253.000000,,2013-08-14 15:02:00,
2013-08-14 11:10:00,77.0,63.0,30.11,NE,48,5.0,14.0,63,0.00,,,0.04,354.000000,,2013-08-14 15:10:00,
2013-08-14 11:44:00,77.0,63.0,30.11,NE,48,5.0,14.0,63,0.00,,,0.04,354.000000,,2013-08-14 15:44:00,
2013-08-14 11:57:00,77.0,63.0,30.11,NE,48,5.0,14.0,63,0.00,,,0.04,354.000000,,2013-08-14 15:57:00,
2013-08-14 12:04:00,77.0,63.0,30.11,NE,48,5.0,14.0,63,0.00,,,0.04,354.000000,,2013-08-14 16:04:00,
2013-08-14 12:10:00,79.0,60.0,30.12,NE,37,5.0,15.0,52,0.00,,,0.04,584.000000,,2013-08-14 16:10:00,
2013-08-14 12:43:00,79.0,60.0,30.12,NE,37,5.0,15.0,52,0.00,,,0.04,584.000000,,2013-08-14 16:43:00,
2013-08-14 13:05:00,79.0,60.0,30.12,NE,37,5.0,15.0,52,0.00,,,0.04,584.000000,,2013-08-14 17:05:00,
2013-08-14 13:10:00,-999.0,-99.9,30.13,NE,50,8.0,17.0,50,0.00,,,0.04,740.000000,,2013-08-14 17:10:00,
2013-08-14 13:44:00,83.0,62.0,30.13,NE,50,8.0,17.0,50,0.00,,,0.04,740.000000,,2013-08-14 17:44:00,
2013-08-14 14:10:00,80.0,62.0,30.12,ENE,70,7.0,15.0,54,0.00,,,0.04,652.000000,,2013-08-14 18:10:00,
2013-08-14 15:03:00,80.0,62.0,30.12,ENE,70,7.0,15.0,54,0.00,,,0.04,652.000000,,2013-08-14 19:03:00,
2013-08-14 15:10:00,81.0,61.0,30.12,NE,51,6.0,15.0,50,0.00,,,0.04,755.000000,,2013-08-14 19:10:00,
2013-08-14 15:42:00,81.0,61.0,30.12,NE,51,6.0,15.0,50,0.00,,,0.04,755.000000,,2013-08-14 19:42:00,
2013-08-14 15:58:00,81.0,61.0,30.12,NE,51,6.0,15.0,50,0.00,,,0.04,755.000000,,2013-08-14 19:58:00,
2013-08-14 16:05:00,81.0,61.0,30.12,NE,51,6.0,15.0,50,0.00,,,0.04,755.000000,,2013-08-14 20:05:00,
2013-08-14 16:10:00,85.0,63.0,30.11,NE,45,4.0,12.0,48,0.00,,,0.04,786.000000,,2013-08-14 20:10:00,
2013-08-14 16:49:00,85.0,63.0,30.11,NE,45,4.0,12.0,48,0.00,,,0.04,786.000000,,2013-08-14 20:49:00,
2013-08-14 17:05:00,85.0,63.0,30.11,NE,45,4.0,12.0,48,0.00,,,0.04,786.000000,,2013-08-14 21:05:00,
2013-08-14 17:10:00,83.0,62.0,30.10,NE,34,6.0,14.0,49,0.00,,,0.04,658.000000,,2013-08-14 21:10:00,
2013-08-14 17:45:00,83.0,62.0,30.10,NE,34,6.0,14.0,49,0.00,,,0.04,658.000000,,2013-08-14 21:45:00,
2013-08-14 17:55:00,83.0,62.0,30.10,NE,34,6.0,14.0,49,0.00,,,0.04,658.000000,,2013-08-14 21:55:00,
2013-08-14 18:04:00,83.0,62.0,30.10,NE,34,6.0,14.0,49,0.00,,,0.04,658.000000,,2013-08-14 22:04:00,
2013-08-14 18:10:00,80.0,60.0,30.12,ENE,63,6.0,13.0,51,0.00,,,0.04,590.000000,,2013-08-14 22:10:00,
2013-08-14 18:44:00,80.0,60.0,30.12,ENE,63,6.0,13.0,51,0.00,,,0.04,590.000000,,2013-08-14 22:44:00,
2013-08-14 18:55:00,80.0,60.0,30.12,ENE,63,6.0,13.0,51,0.00,,,0.04,590.000000,,2013-08-14 22:55:00,
2013-08-14 19:06:00,80.0,60.0,30.12,ENE,63,6.0,13.0,51,0.00,,,0.04,590.000000,,2013-08-14 23:06:00,
2013-08-14 19:10:00,71.0,64.0,30.12,ENE,74,3.0,10.0,78,0.00,,,0.00,239.000000,,2013-08-14 23:10:00,
2013-08-14 19:46:00,71.0,64.0,30.12,ENE,74,3.0,10.0,78,0.00,,,0.00,239.000000,,2013-08-14 23:46:00,
2013-08-14 19:56:00,71.0,64.0,30.12,ENE,74,3.0,10.0,78,0.00,,,0.00,239.000000,,2013-08-14 23:56:00,
2013-08-14 20:04:00,71.0,64.0,30.12,ENE,74,3.0,10.0,78,0.00,,,0.00,239.000000,,2013-08-15 00:04:00,
2013-08-14 20:10:00,67.0,63.0,30.15,ENE,77,3.0,7.0,87,0.00,,,0.00,59.000000,,2013-08-15 00:10:00,
2013-08-14 20:43:00,67.0,63.0,30.15,ENE,77,3.0,7.0,87,0.00,,,0.00,59.000000,,2013-08-15 00:43:00,
2013-08-14 20:52:00,67.0,63.0,30.15,ENE,77,3.0,7.0,87,0.00,,,0.00,59.000000,,2013-08-15 00:52:00,
2013-08-14 21:01:00,67.0,63.0,30.15,ENE,77,3.0,7.0,87,0.00,,,0.00,59.000000,,2013-08-15 01:01:00,
2013-08-14 21:10:00,64.0,62.0,30.16,NE,45,1.0,6.0,93,0.00,,,0.00,3.000000,,2013-08-15 01:10:00,
2013-08-14 21:42:00,64.0,62.0,30.16,NE,45,1.0,6.0,93,0.00,,,0.00,3.000000,,2013-08-15 01:42:00,
2013-08-14 21:52:00,64.0,62.0,30.16,NE,45,1.0,6.0,93,0.00,,,0.00,3.000000,,2013-08-15 01:52:00,
2013-08-14 22:02:00,64.0,62.0,30.16,NE,45,1.0,6.0,93,0.00,,,0.00,3.000000,,2013-08-15 02:02:00,
2013-08-14 22:10:00,62.0,61.0,30.18,NE,50,2.0,5.0,95,0.00,,,0.00,0.000000,,2013-08-15 02:10:00,
2013-08-14 22:52:00,62.0,61.0,30.18,NE,50,2.0,5.0,95,0.00,,,0.00,0.000000,,2013-08-15 02:52:00,
2013-08-14 23:02:00,62.0,61.0,30.18,NE,50,2.0,5.0,95,0.00,,,0.00,0.000000,,2013-08-15 03:02:00,
2013-08-14 23:10:00,61.0,60.0,30.20,East,84,2.0,6.0,97,0.00,,,0.00,0.000000,,2013-08-15 03:10:00,
2013-08-14 23:44:00,61.0,60.0,30.20,East,84,2.0,6.0,97,0.00,,,0.00,0.000000,,2013-08-15 03:44:00,
2013-08-14 23:53:00,61.0,60.0,30.20,East,84,2.0,6.0,97,0.00,,,0.00,0.000000,,2013-08-15 03:53:00,